When you browse on this site, cookies collect data to enhance your experience and personalize the content and advertising you see.
Visit our Privacy Policy to learn more. By continuing to use the site, you agree to this use of cookies and data.
  • en France
  • Liste des pays
  • À 7 jours
  • Température de l'eau
  • Carte satellitaire
  • Carte météo
  • Widgets météo
  • user-avatar
    Se connecter

    Météo par heure à Giumri

    Ce jour, 19 Avril, Vendredi

    Heure Température Précipitation Vent Pression Humidité
    00:00 +5°C° 0.1 mm 1 m/s 630 mmHg 79%
    01:00 +4°C° 0.1 mm 1 m/s 630 mmHg 81%
    02:00 +4°C° 0.1 mm 1 m/s 630 mmHg 83%
    03:00 +4°C° 0 mm 1 m/s 630 mmHg 85%
    04:00 +4°C° 0.1 mm 1 m/s 629 mmHg 85%
    05:00 +4°C° 0.1 mm 1 m/s 629 mmHg 85%
    06:00 +4°C° 0.1 mm 1 m/s 629 mmHg 85%
    07:00 +4°C° 0.2 mm 2 m/s 629 mmHg 79%
    08:00 +5°C° 0.2 mm 2 m/s 629 mmHg 72%
    09:00 +5°C° 0 mm 3 m/s 629 mmHg 67%
    10:00 +5°C° 0.3 mm 3 m/s 629 mmHg 66%
    11:00 +7°C° 0.3 mm 3 m/s 629 mmHg 64%
    12:00 +8°C° 0.3 mm 3 m/s 629 mmHg 63%
    13:00 +8°C° 0.5 mm 3 m/s 629 mmHg 64%
    14:00 +8°C° 0.5 mm 3 m/s 629 mmHg 64%
    15:00 +7°C° 0 mm 2 m/s 628 mmHg 66%
    16:00 +6°C° 0.8 mm 2 m/s 628 mmHg 70%
    17:00 +6°C° 0.8 mm 2 m/s 628 mmHg 73%
    18:00 +5°C° 0.8 mm 2 m/s 628 mmHg 77%
    19:00 +3°C° 0.4 mm 3 m/s 628 mmHg 79%
    20:00 +2°C° 0.4 mm 3 m/s 628 mmHg 82%
    21:00 +1°C° 0.4 mm 3 m/s 628 mmHg 84%
    22:00 +1°C° 0.2 mm 3 m/s 628 mmHg 84%
    23:00 +1°C° 0.2 mm 3 m/s 628 mmHg 84%

    Demain, 20 Avril, Samedi

    Heure Température Précipitation Vent Pression Humidité
    00:00 0°C° 0.2 mm 3 m/s 628 mmHg 83%
    01:00 0°C° 0.2 mm 3 m/s 628 mmHg 83%
    02:00 0°C° 0.2 mm 3 m/s 628 mmHg 83%
    03:00 0°C° 0.2 mm 3 m/s 628 mmHg 83%
    04:00 0°C° 0.2 mm 3 m/s 628 mmHg 83%
    05:00 0°C° 0.2 mm 3 m/s 628 mmHg 83%
    06:00 0°C° 0.2 mm 3 m/s 629 mmHg 83%
    07:00 0°C° 0.2 mm 3 m/s 629 mmHg 80%
    08:00 +1°C° 0.2 mm 3 m/s 629 mmHg 77%
    09:00 +1°C° 0.2 mm 3 m/s 630 mmHg 74%
    10:00 +2°C° 0.2 mm 3 m/s 630 mmHg 72%
    11:00 +3°C° 0.2 mm 3 m/s 630 mmHg 69%
    12:00 +4°C° 0.2 mm 3 m/s 630 mmHg 67%
    13:00 +4°C° 0.1 mm 3 m/s 630 mmHg 66%
    14:00 +4°C° 0.1 mm 3 m/s 630 mmHg 65%
    15:00 +5°C° 0.1 mm 3 m/s 630 mmHg 64%
    16:00 +4°C° 0 mm 3 m/s 630 mmHg 67%
    17:00 +3°C° 0 mm 3 m/s 630 mmHg 69%
    18:00 +3°C° 0 mm 3 m/s 630 mmHg 72%
    19:00 +2°C° 0 mm 3 m/s 630 mmHg 76%
    20:00 +1°C° 0 mm 3 m/s 630 mmHg 80%
    21:00 +1°C° 0 mm 2 m/s 630 mmHg 84%
    22:00 -1°C° 0 mm 2 m/s 630 mmHg 84%
    23:00 -1°C° 0 mm 2 m/s 630 mmHg 85%

    Après-demain, 21 Avril, Dimanche

    Heure Température Précipitation Vent Pression Humidité
    00:00 -1°C° 0 mm 2 m/s 630 mmHg 85%
    01:00 -1°C° 0 mm 2 m/s 630 mmHg 85%
    02:00 -1°C° 0 mm 2 m/s 630 mmHg 84%
    03:00 -1°C° 0 mm 2 m/s 630 mmHg 84%
    04:00 -1°C° 0.1 mm 2 m/s 630 mmHg 83%
    05:00 -1°C° 0.1 mm 2 m/s 630 mmHg 83%
    06:00 -1°C° 0.1 mm 2 m/s 630 mmHg 82%
    07:00 +1°C° 0.1 mm 2 m/s 631 mmHg 77%
    08:00 +1°C° 0.1 mm 3 m/s 631 mmHg 73%
    09:00 +3°C° 0.1 mm 3 m/s 631 mmHg 68%
    10:00 +3°C° 0.1 mm 3 m/s 631 mmHg 67%
    11:00 +4°C° 0.1 mm 3 m/s 631 mmHg 65%
    12:00 +5°C° 0.1 mm 3 m/s 631 mmHg 64%
    13:00 +5°C° 0.1 mm 3 m/s 631 mmHg 64%
    14:00 +5°C° 0.1 mm 3 m/s 630 mmHg 64%
    15:00 +5°C° 0.1 mm 3 m/s 630 mmHg 64%
    16:00 +4°C° 0.1 mm 4 m/s 630 mmHg 67%
    17:00 +3°C° 0.1 mm 4 m/s 630 mmHg 70%
    18:00 +3°C° 0.1 mm 4 m/s 629 mmHg 74%
    19:00 +1°C° 0.1 mm 4 m/s 630 mmHg 76%
    20:00 0°C° 0.1 mm 4 m/s 630 mmHg 78%
    21:00 0°C° 0.1 mm 3 m/s 630 mmHg 81%
    22:00 0°C° 0.1 mm 3 m/s 630 mmHg 81%
    23:00 -1°C° 0.1 mm 3 m/s 630 mmHg 81%

    22 Avril, Lundi

    Heure Température Précipitation Vent Pression Humidité
    00:00 -1°C° 0.1 mm 3 m/s 630 mmHg 82%
    01:00 -1°C° 0 mm 3 m/s 630 mmHg 82%
    02:00 -1°C° 0 mm 3 m/s 630 mmHg 82%
    03:00 -2°C° 0 mm 3 m/s 630 mmHg 83%
    04:00 -1°C° 0.1 mm 3 m/s 630 mmHg 82%
    05:00 -1°C° 0.1 mm 3 m/s 630 mmHg 81%
    06:00 -1°C° 0.1 mm 3 m/s 630 mmHg 80%
    07:00 -1°C° 0 mm 4 m/s 630 mmHg 75%
    08:00 0°C° 0 mm 4 m/s 631 mmHg 70%
    09:00 +2°C° 0 mm 5 m/s 631 mmHg 65%
    10:00 +3°C° 0 mm 5 m/s 631 mmHg 64%
    11:00 +3°C° 0 mm 5 m/s 631 mmHg 62%
    12:00 +4°C° 0 mm 6 m/s 631 mmHg 61%
    13:00 +4°C° 0.1 mm 6 m/s 630 mmHg 62%
    14:00 +4°C° 0.1 mm 6 m/s 630 mmHg 63%
    15:00 +3°C° 0.1 mm 6 m/s 630 mmHg 64%
    16:00 +3°C° 0.1 mm 6 m/s 630 mmHg 67%
    17:00 +2°C° 0.1 mm 5 m/s 630 mmHg 70%
    18:00 +1°C° 0.1 mm 5 m/s 630 mmHg 73%
    19:00 0°C° 0.1 mm 5 m/s 631 mmHg 75%
    20:00 0°C° 0.1 mm 4 m/s 632 mmHg 76%
    21:00 -1°C° 0.1 mm 4 m/s 632 mmHg 78%
    22:00 0°C° 0.1 mm 3 m/s 632 mmHg 79%
    23:00 0°C° 0.1 mm 3 m/s 632 mmHg 79%

    23 Avril, Mardi

    Heure Température Précipitation Vent Pression Humidité
    00:00 0°C° 0.1 mm 3 m/s 633 mmHg 80%
    01:00 0°C° 0.1 mm 3 m/s 633 mmHg 80%
    02:00 0°C° 0.1 mm 3 m/s 633 mmHg 80%
    03:00 0°C° 0.1 mm 3 m/s 633 mmHg 80%
    04:00 +1°C° 0.1 mm 2 m/s 633 mmHg 79%
    05:00 +1°C° 0.1 mm 2 m/s 634 mmHg 78%
    06:00 +1°C° 0.1 mm 2 m/s 634 mmHg 77%
    07:00 +2°C° 0.1 mm 2 m/s 635 mmHg 72%
    08:00 +3°C° 0.1 mm 2 m/s 635 mmHg 67%
    09:00 +5°C° 0.1 mm 2 m/s 636 mmHg 61%
    10:00 +5°C° 0.1 mm 2 m/s 636 mmHg 60%
    11:00 +6°C° 0.1 mm 2 m/s 636 mmHg 59%
    12:00 +7°C° 0.1 mm 2 m/s 636 mmHg 57%
    13:00 +7°C° 0.2 mm 2 m/s 636 mmHg 59%
    14:00 +7°C° 0.2 mm 2 m/s 636 mmHg 61%
    15:00 +7°C° 0.2 mm 3 m/s 636 mmHg 62%
    16:00 +7°C° 0.2 mm 3 m/s 636 mmHg 65%
    17:00 +5°C° 0.2 mm 3 m/s 636 mmHg 68%
    18:00 +5°C° 0.2 mm 3 m/s 636 mmHg 71%
    19:00 +5°C° 0.1 mm 2 m/s 637 mmHg 75%
    20:00 +4°C° 0.1 mm 2 m/s 637 mmHg 79%
    21:00 +4°C° 0.1 mm 1 m/s 637 mmHg 83%
    22:00 +3°C° 0 mm 1 m/s 637 mmHg 84%
    23:00 +3°C° 0 mm 1 m/s 637 mmHg 85%

    24 Avril, Mercredi

    Heure Température Précipitation Vent Pression Humidité
    00:00 +3°C° 0 mm 1 m/s 638 mmHg 85%
    01:00 +2°C° 0.1 mm 1 m/s 638 mmHg 86%
    02:00 +2°C° 0.1 mm 1 m/s 638 mmHg 86%
    03:00 +2°C° 0.1 mm 1 m/s 638 mmHg 86%
    04:00 +2°C° 0 mm 1 m/s 638 mmHg 85%
    05:00 +2°C° 0 mm 1 m/s 638 mmHg 84%
    06:00 +2°C° 0 mm 1 m/s 638 mmHg 83%
    07:00 +3°C° 0 mm 1 m/s 639 mmHg 77%
    08:00 +5°C° 0 mm 1 m/s 639 mmHg 71%
    09:00 +6°C° 0 mm 1 m/s 639 mmHg 64%
    10:00 +7°C° 0 mm 1 m/s 639 mmHg 61%
    11:00 +8°C° 0 mm 1 m/s 639 mmHg 59%
    12:00 +9°C° 0 mm 1 m/s 638 mmHg 56%
    13:00 +9°C° 0.2 mm 1 m/s 638 mmHg 55%
    14:00 +10°C° 0.2 mm 1 m/s 638 mmHg 55%
    15:00 +10°C° 0.2 mm 1 m/s 637 mmHg 54%
    16:00 +8°C° 0.2 mm 2 m/s 637 mmHg 58%
    17:00 +7°C° 0.2 mm 2 m/s 637 mmHg 61%
    18:00 +7°C° 0.2 mm 2 m/s 637 mmHg 65%
    19:00 +6°C° 0.2 mm 2 m/s 638 mmHg 70%
    20:00 +5°C° 0.2 mm 2 m/s 638 mmHg 75%
    21:00 +4°C° 0.2 mm 2 m/s 638 mmHg 80%
    22:00 +4°C° 0.1 mm 2 m/s 638 mmHg 81%
    23:00 +3°C° 0.1 mm 2 m/s 638 mmHg 83%
    Voir plus